Change the Weather History Date:

Saturday, May 18, 2013

  Actual Average Record
Temperature  
Mean Temperature 74 °F -  
Max Temperature 85 °F 77 °F 95 °F (1967)
Min Temperature 62 °F 52 °F 35 °F (2002)
Cooling Degree Days 10    
Growing Degree Days 24 (Base 50)    
Moisture  
Dew Point 66 °F    
Average Humidity 75    
Maximum Humidity 96    
Minimum Humidity 58    
Precipitation  
Precipitation 0.25 in - - ()
Sea Level Pressure  
Sea Level Pressure 29.81 in    
Wind  
Wind Speed 11 mph (SE)    
Max Wind Speed 24 mph    
Max Gust Speed 28 mph    
Visibility 9 miles    
Events Rain , Thunderstorm    
Averages and records for this station are not official NWS values.
T = Trace of Precipitation, MM = Missing Value Source: NWS Daily Summary

Daily Weather History Graph

Daily Weather History Graph

Search for Another Location

Airport or City:

Trip Planner

Search our weather history database for the weather conditions in past years. The results will help you decide how hot, cold, wet, or windy it might be!

Date:

Astronomy

May. 18, 2013 Rise Set
Actual Time 6:08 AM CDT 8:39 PM CDT
Civil Twilight 5:36 AM CDT 9:10 PM CDT
Nautical Twilight 4:58 AM CDT 9:49 PM CDT
Astronomical Twilight 4:15 AM CDT 10:32 PM CDT
Moon 1:43 PM CDT (5/18) 2:02 AM CDT (5/18)
Length of Visible Light 15h 33m
Length of Day
14h 31m
First Quarter, 55% of the Moon is Illuminated
May 18
First Quarter
May 24
Full
May 31
Last Quarter
Jun 8
New
Jun 16
First Quarter

Hourly Weather History & Observations

Time (CDT) Temp. Heat Index Dew Point Humidity Pressure Visibility Wind Dir Wind Speed Gust Speed Precip Events Conditions
12:15 AM 69.8 °F - 61.5 °F 75% 29.90 in 10.0 mi SE 9.2 mph - N/A   Clear
12:35 AM 69.1 °F - 61.7 °F 77% 29.90 in 10.0 mi SE 11.5 mph - N/A   Clear
12:55 AM 68.5 °F - 61.9 °F 79% 29.90 in 10.0 mi SSE 11.5 mph - N/A   Clear
1:15 AM 68.2 °F - 62.2 °F 81% 29.89 in 10.0 mi SSE 10.4 mph 16.1 mph N/A   Clear
1:35 AM 68.0 °F - 62.6 °F 83% 29.89 in 10.0 mi SSE 10.4 mph - N/A   Clear
1:55 AM 67.5 °F - 62.4 °F 84% 29.89 in 10.0 mi SSE 9.2 mph - N/A   Clear
2:15 AM 67.1 °F - 62.2 °F 84% 29.89 in 10.0 mi SSE 8.1 mph - N/A   Clear
2:35 AM 66.6 °F - 62.2 °F 86% 29.88 in 10.0 mi SSE 8.1 mph - N/A   Clear
2:55 AM 66.4 °F - 62.2 °F 86% 29.88 in 10.0 mi SE 5.8 mph - N/A   Clear
3:15 AM 65.8 °F - 62.1 °F 88% 29.88 in 10.0 mi SE 5.8 mph - N/A   Clear
3:35 AM 65.3 °F - 61.9 °F 89% 29.88 in 10.0 mi SE 6.9 mph - N/A   Clear
3:55 AM 65.5 °F - 61.7 °F 88% 29.87 in 10.0 mi SE 5.8 mph - N/A   Clear
4:15 AM 64.8 °F - 61.7 °F 90% 29.87 in 10.0 mi SE 5.8 mph - N/A   Clear
4:35 AM 65.3 °F - 61.7 °F 88% 29.87 in 10.0 mi SE 6.9 mph - N/A   Clear
4:55 AM 64.9 °F - 61.7 °F 89% 29.86 in 10.0 mi SE 8.1 mph - N/A   Clear
5:15 AM 64.8 °F - 61.7 °F 90% 29.87 in 10.0 mi SSE 8.1 mph - N/A   Clear
5:35 AM 64.6 °F - 61.7 °F 90% 29.86 in 10.0 mi SE 8.1 mph - N/A   Clear
5:55 AM 64.4 °F - 61.7 °F 91% 29.86 in 10.0 mi SE 5.8 mph - N/A   Clear
6:15 AM 64.4 °F - 61.5 °F 90% 29.87 in 10.0 mi SE 6.9 mph - N/A   Scattered Clouds
6:35 AM 65.3 °F - 61.9 °F 89% 29.87 in 10.0 mi SE 6.9 mph - N/A   Mostly Cloudy
6:55 AM 65.3 °F - 61.9 °F 89% 29.87 in 10.0 mi ESE 5.8 mph - N/A   Overcast
7:15 AM 66.0 °F - 62.6 °F 89% 29.87 in 10.0 mi ESE 5.8 mph - N/A   Overcast
7:35 AM 67.1 °F - 62.8 °F 86% 29.87 in 10.0 mi SE 6.9 mph - N/A   Overcast
7:55 AM 68.0 °F - 63.5 °F 85% 29.87 in 10.0 mi SE 6.9 mph - N/A   Overcast
8:15 AM 69.3 °F - 63.5 °F 82% 29.86 in 10.0 mi ESE 10.4 mph - N/A   Mostly Cloudy
8:35 AM 71.4 °F - 64.0 °F 77% 29.86 in 10.0 mi SE 10.4 mph - N/A   Clear
8:55 AM 72.7 °F - 64.2 °F 75% 29.86 in 10.0 mi SE 11.5 mph - N/A   Clear
9:15 AM 74.3 °F - 64.6 °F 72% 29.86 in 10.0 mi SE 10.4 mph - N/A   Clear
9:35 AM 75.7 °F - 65.5 °F 70% 29.86 in 10.0 mi SSE 11.5 mph - N/A   Scattered Clouds
9:55 AM 76.3 °F - 66.2 °F 71% 29.87 in 10.0 mi SSE 15.0 mph - N/A   Mostly Cloudy
10:15 AM 75.2 °F - 66.6 °F 74% 29.87 in 10.0 mi SSE 13.8 mph 19.6 mph N/A   Overcast
10:35 AM 75.6 °F - 66.4 °F 73% 29.86 in 10.0 mi SSE 11.5 mph - N/A   Overcast
10:55 AM 77.9 °F - 67.3 °F 70% 29.86 in 10.0 mi SSE 12.7 mph 18.4 mph N/A   Overcast
11:15 AM 77.4 °F - 67.5 °F 71% 29.86 in 10.0 mi SSE 10.4 mph - N/A   Overcast
11:35 AM 77.5 °F - 67.3 °F 71% 29.86 in 10.0 mi SE 9.2 mph - N/A   Overcast
11:55 AM 78.1 °F - 67.6 °F 70% 29.85 in 10.0 mi ESE 13.8 mph 18.4 mph N/A   Mostly Cloudy
12:15 PM 78.8 °F - 67.3 °F 68% 29.84 in 10.0 mi SE 15.0 mph 19.6 mph N/A   Mostly Cloudy
12:35 PM 79.7 °F - 66.7 °F 64% 29.83 in 10.0 mi ESE 15.0 mph 24.2 mph N/A   Overcast
12:55 PM 80.2 °F 82.7 °F 67.5 °F 65% 29.82 in 10.0 mi SE 16.1 mph 23.0 mph N/A   Overcast
1:15 PM 81.0 °F 83.8 °F 68.0 °F 65% 29.81 in 10.0 mi SE 16.1 mph 23.0 mph N/A   Overcast
1:35 PM 81.5 °F 83.9 °F 66.9 °F 61% 29.80 in 10.0 mi SSE 20.7 mph 25.3 mph N/A   Mostly Cloudy
1:55 PM 80.6 °F 82.7 °F 66.2 °F 61% 29.81 in 10.0 mi SE 17.3 mph 23.0 mph N/A   Mostly Cloudy
2:15 PM 80.4 °F 82.8 °F 67.1 °F 64% 29.81 in 10.0 mi SE 15.0 mph 20.7 mph N/A   Overcast
2:35 PM 81.0 °F 83.4 °F 67.3 °F 63% 29.81 in 7.0 mi SE 12.7 mph 21.9 mph N/A   Overcast
2:55 PM 81.7 °F 84.5 °F 68.0 °F 63% 29.80 in 10.0 mi SE 15.0 mph 21.9 mph N/A   Overcast
3:15 PM 81.0 °F 83.9 °F 68.7 °F 66% 29.80 in 7.0 mi SSE 15.0 mph 24.2 mph N/A   Overcast
3:35 PM 81.7 °F 85.2 °F 69.6 °F 67% 29.80 in 7.0 mi SSE 15.0 mph 19.6 mph N/A   Overcast
3:55 PM 82.8 °F 86.4 °F 69.3 °F 64% 29.77 in 7.0 mi SE 12.7 mph 17.3 mph N/A   Mostly Cloudy
4:15 PM 82.8 °F 86.2 °F 69.1 °F 63% 29.76 in 10.0 mi SE 16.1 mph 20.7 mph N/A   Scattered Clouds
4:35 PM 82.6 °F 86.1 °F 69.1 °F 64% 29.77 in 10.0 mi SSE 17.3 mph 20.7 mph N/A   Mostly Cloudy
4:55 PM 83.3 °F 86.9 °F 69.3 °F 62% 29.74 in 10.0 mi SE 16.1 mph 19.6 mph N/A   Scattered Clouds
5:15 PM 83.5 °F 86.9 °F 68.9 °F 61% 29.74 in 10.0 mi SE 13.8 mph 21.9 mph N/A   Scattered Clouds
5:35 PM 83.5 °F 86.9 °F 68.7 °F 61% 29.72 in 10.0 mi SE 18.4 mph 23.0 mph N/A   Scattered Clouds
5:55 PM 85.1 °F 88.8 °F 68.7 °F 58% 29.71 in 7.0 mi SE 18.4 mph 23.0 mph N/A   Clear
6:15 PM 84.2 °F 87.6 °F 68.5 °F 59% 29.71 in 7.0 mi SSE 17.3 mph 23.0 mph N/A   Scattered Clouds
6:35 PM 83.1 °F 86.3 °F 68.5 °F 61% 29.71 in 7.0 mi SE 16.1 mph 27.6 mph N/A   Clear
6:55 PM 82.0 °F 85.1 °F 68.4 °F 63% 29.71 in 7.0 mi SE 17.3 mph 21.9 mph N/A   Clear
7:15 PM 82.4 °F 85.8 °F 68.9 °F 64% 29.69 in 7.0 mi SE 15.0 mph 24.2 mph N/A   Clear
7:35 PM 81.5 °F 84.6 °F 68.9 °F 65% 29.69 in 10.0 mi SE 13.8 mph 20.7 mph N/A   Scattered Clouds
7:55 PM 80.6 °F 83.6 °F 69.1 °F 68% 29.70 in 7.0 mi SE 10.4 mph - N/A   Clear
8:15 PM 79.9 °F - 69.6 °F 71% 29.69 in 7.0 mi SE 15.0 mph 20.7 mph N/A   Scattered Clouds
8:35 PM 79.5 °F - 69.8 °F 72% 29.70 in 7.0 mi SE 10.4 mph 18.4 mph N/A   Scattered Clouds
8:55 PM 79.0 °F - 70.3 °F 75% 29.72 in 10.0 mi SSE 6.9 mph - N/A   Scattered Clouds
9:15 PM 78.4 °F - 70.5 °F 77% 29.71 in 10.0 mi SE 10.4 mph - N/A   Scattered Clouds
9:35 PM 78.4 °F - 70.7 °F 77% 29.73 in 10.0 mi SSE 8.1 mph - N/A   Scattered Clouds
9:55 PM 78.1 °F - 71.1 °F 79% 29.74 in 10.0 mi SSE 6.9 mph - N/A   Overcast
10:15 PM 77.9 °F - 71.6 °F 81% 29.73 in 10.0 mi SSE 10.4 mph - N/A   Mostly Cloudy
10:35 PM 77.0 °F - 72.1 °F 85% 29.74 in 7.0 mi SSE 9.2 mph - N/A Rain Light Rain
10:55 PM 76.6 °F - 72.0 °F 85% 29.72 in 10.0 mi SSE 9.2 mph - N/A   Mostly Cloudy
11:15 PM 76.1 °F - 68.2 °F 76% 29.76 in 7.0 mi WNW 10.4 mph 23.0 mph N/A Thunderstorm Mostly Cloudy
11:35 PM 69.4 °F - 60.3 °F 73% 29.72 in 10.0 mi NW 24.2 mph 27.6 mph N/A Rain , Thunderstorm Light Thunderstorms and Rain
11:55 PM 62.4 °F - 61.3 °F 96% 29.80 in 2.0 mi SW 13.8 mph 20.7 mph 0.25 in Rain , Thunderstorm Heavy Thunderstorms and Rain